Dewpoint
72 73 72 72 72 71 71 71 70 70 72 70 69 72 71 73 74 74 74 75 75 75 77 79 79 79 78 78 79 77 77 77 75 72 74 72 70 69 66 67 69 68
72 73 73 72 72 73 73 72 72 71 72 73 71 72 74 73 74 74 74 74 76 74 76 76 78 78 79 77 78 76 76 76 75 72 74 74 73 71 68 69 67 68
72 71 71 71 69 71 69 71 72 71 70 70 70 72 73 73 74 75 75 74 74 72 75 76 77 78 77 78 79 77 75 76 75 73 74 74 72 73 71 67 67 67
74 72 69 68 68 68 70 70 71 72 70 70 70 69 70 68 72 74 75 75 74 74 74 74 75 75 76 77 78 75 76 77 75 76 75 75 73 72 71 70 69 68
73 72 70 69 68 69 70 70 68 69 69 69 69 71 72 73 73 72 74 75 75 74 74 75 75 75 76 76 77 76 74 74 75 77 76 75 75 73 70 70 70 68
74 74 73 71 70 70 69 70 70 68 69 67 69 69 70 72 72 70 71 72 71 71 71 72 73 73 73 75 76 76 74 72 73 76 76 75 74 73 69 71 71 71
72 73 72 71 70 70 70 70 70 70 67 67 69 69 70 70 71 71 71 71 69 71 70 72 74 73 73 75 76 76 75 75 74 76 76 74 74 74 72 72 72 72
72 72 72 71 69 69 70 69 69 70 70 69 67 70 70 68 70 69 71 70 69 69 71 71 73 75 72 73 75 75 75 73 73 75 76 75 74 74 74 72 73 74
71 71 72 71 69 68 67 66 67 69 70 70 67 66 70 69 68 68 70 72 71 71 72 72 74 74 73 73 73 74 74 73 71 73 74 74 73 73 72 73 73 73
72 71 70 69 68 67 66 66 64 66 69 69 68 65 65 69 68 68 69 73 72 72 73 74 73 73 73 72 73 73 74 74 73 73 73 73 72 72 71 71 72 73
70 69 69 69 67 66 65 65 64 63 66 68 67 65 64 66 70 70 71 72 70 70 72 73 73 73 73 70 70 71 72 71 72 73 73 73 73 73 73 72 72 71
70 69 68 68 68 66 65 65 64 64 64 66 67 66 65 64 68 69 69 71 72 70 70 73 74 73 74 73 69 69 71 70 71 72 71 72 73 72 72 72 72 72
69 70 69 67 68 68 66 66 65 64 63 64 66 66 64 63 64 69 69 69 72 70 68 70 73 72 74 75 73 71 70 72 68 69 70 71 72 71 70 71 71 71
69 70 69 69 69 71 69 67 66 66 66 66 67 67 65 63 62 64 68 69 69 69 69 69 72 73 73 75 74 71 69 71 72 69 67 68 69 70 69 68 69 70
71 70 71 71 70 71 71 69 68 68 68 68 69 67 65 64 63 62 65 68 69 69 69 67 67 71 71 73 74 74 71 68 70 71 69 68 68 67 67 68 67 67
72 73 72 72 71 71 72 71 69 69 67 68 68 68 69 69 68 66 63 64 68 69 69 67 67 68 72 69 70 73 73 67 68 71 71 69 68 68 65 65 65 65
73 73 73 73 73 72 72 72 71 69 69 70 70 70 70 71 69 67 65 64 65 67 69 68 67 66 68 65 66 68 71 72 70 70 72 72 70 70 69 65 63 64
73 74 74 73 74 73 73 73 72 71 71 71 70 70 72 70 69 69 69 66 64 65 67 68 68 66 64 64 65 65 69 71 69 70 69 70 70 68 67 67 65 63
74 73 73 73 74 74 74 74 73 72 71 70 69 70 70 72 72 70 70 69 67 67 66 66 68 65 62 63 64 64 65 68 65 67 67 67 68 68 68 68 68 67
73 72 72 72 73 74 74 73 73 73 71 69 69 71 71 71 70 71 71 72 71 69 69 67 68 66 61 61 62 62 63 66 68 65 65 65 67 67 67 68 69 69
73 73 72 71 73 74 74 74 73 73 72 70 68 69 71 72 71 71 71 72 70 70 69 68 67 63 59 59 60 60 61 64 69 65 64 65 66 67 70 69 70 69
72 72 72 72 73 73 73 73 73 74 74 72 71 68 69 70 71 71 70 70 70 70 69 69 68 62 59 58 58 59 60 69 72 70 68 66 66 68 69 72 72 71
70 71 74 73 71 71 72 72 73 73 73 73 72 70 68 68 70 70 72 70 70 70 70 70 69 65 58 57 57 57 61 70 72 71 71 69 68 69 69 70 71 73
68 70 72 73 73 71 71 71 71 72 71 72 72 71 68 67 69 70 71 71 70 69 69 70 70 66 57 56 56 56 63 71 71 71 72 71 71 70 69 70 72 73
66 68 70 70 72 73 71 71 71 71 71 72 72 71 71 70 70 70 70 71 69 69 70 69 69 67 56 56 56 55 63 72 71 71 71 72 71 71 72 71 72 74
65 67 68 69 70 70 73 74 74 72 71 70 72 72 73 71 70 70 69 70 70 70 69 69 69 70 69 55 55 54 57 72 71 70 71 72 72 72 72 73 72 73